Location: Floral Estates
(43.0981°N, 73.7183°W)
Time: 13:31:52
(UTC+00:00)

Daily predictions for brighter satellites

Satellite Brightness Start Highest point End
(mag) Time Altitude Azimuth Time Altitude Azimuth Time Altitude Azimuth
Cosmos 1092 Rocket 4.5 21:41:46 10° N 21:47:41 39° ENE 21:53:32 10° SE
Cosmos 1939 Rocket 3.1 21:51:36 10° SSE 21:55:35 49° ENE 21:59:33 10° N
H-2A R/B 2.9 21:51:46 10° ESE 21:56:05 27° ENE 22:00:18 10° N
Cosmos 1656 3.7 21:50:52 10° NNW 21:56:27 87° ENE 22:02:04 10° SSE
Cosmos 1812 4.5 21:56:59 10° ESE 21:59:06 14° E 22:01:13 10° NE
FengYun 1-2 T 4.2 21:54:20 10° SSE 21:59:52 70° ENE 22:05:24 10° N
COSMO-SKYMED 1 4.1 21:58:02 10° NE 22:00:50 17° E 22:03:37 10° SE
USA 276 2.0 22:01:41 10° WNW 22:04:48 82° NNE 22:07:56 10° ESE
Cosmos 1763 Rocket 3.4 22:01:17 10° SSW 22:06:20 82° ESE 22:11:28 10° NNE
Cosmos 1697 Rocket 2.8 22:03:10 10° NNW 22:08:42 56° ENE 22:14:12 10° SE
Cosmos 2034 Rocket 4.0 22:02:39 10° S 22:08:48 87° W 22:15:01 10° N
Meteor PRIRODA 4.2 22:06:06 10° S 22:09:42 62° W 22:13:18 10° NNW
Cosmos 1633 Rocket 4.5 22:07:49 10° NNE 22:10:43 17° ENE 22:13:37 10° ESE
Cosmos 841 Rocket 4.0 22:07:18 10° S 22:12:05 40° ESE 22:16:52 10° NE
Cosmos 1980 Rocket 2.8 22:07:26 10° N 22:12:31 33° NE 22:17:34 10° ESE
Cosmos 2369 4.1 22:07:12 10° NNW 22:12:37 41° ENE 22:17:59 10° SE
SL-24 R/B - RUBIN 2 4.4 22:10:22 10° NNW 22:14:20 28° NE 22:18:06 10° ESE
Cosmos 1602 3.9 22:12:39 10° N 22:16:25 50° E 22:20:11 10° SSE
Cosmos 1937 Rocket 3.7 22:11:48 10° NNW 22:17:01 52° ENE 22:22:11 10° SE
Meteor 1-25 Rocket 4.1 22:13:58 10° N 22:19:33 75° E 22:25:09 10° SSE
Cosmos 1782 3.1 22:17:36 10° SSE 22:21:25 46° E 22:25:15 10° NNE
Okean O Rocket 2.7 22:18:01 10° ESE 22:21:34 24° ENE 22:25:09 10° NNE
SL-16 R/B 3.8 22:19:28 10° NNE 22:22:17 14° NE 22:23:10 13° NE
NOAA 6 4.0 22:17:27 10° SSE 22:22:36 87° ENE 22:27:45 10° NNW
Cosmos 1743 Rocket 3.7 22:20:18 10° N 22:24:39 78° W 22:28:57 10° S
Cosmos 2082 Rocket 2.6 22:19:31 10° S 22:24:54 45° ESE 22:30:06 11° NE
Cosmos 990 Rocket 4.3 22:20:03 10° NNW 22:25:14 72° WSW 22:30:21 10° S
Cosmos 1151 Rocket 3.9 22:21:35 10° SSE 22:25:16 28° E 22:28:48 11° NNE
Meteor 2-21 4.5 22:20:01 10° N 22:26:01 56° ENE 22:31:56 10° SSE
USA 267 3.7 22:20:20 10° NE 22:26:41 56° NNW 22:33:02 10° WSW
ISS -2.6 22:24:42 10° NW 22:27:43 28° NNE 22:29:10 20° ENE
Cosmos 1634 Rocket 4.0 22:24:02 10° S 22:30:16 66° E 22:36:33 10° NNE
CORIOLIS 4.2 22:24:57 10° SSE 22:30:20 90° N 22:35:48 10° NNW
Cosmos 372 Rocket 4.3 22:25:38 10° N 22:30:38 44° ENE 22:35:38 10° SE
CZ-4B DEB 4.2 22:26:06 10° SSE 22:31:36 80° ENE 22:37:08 10° NNW
Cosmos 1340 Rocket 4.1 22:30:08 10° NNW 22:34:01 44° W 22:37:53 10° SSW
Cosmos 1666 Rocket 4.1 22:31:55 10° N 22:36:03 36° ENE 22:40:07 10° SE
CZ-2D R/B 3.1 22:32:28 10° SSE 22:36:16 66° ENE 22:40:04 10° N
Cosmos 2278 4.2 22:31:41 10° N 22:36:58 37° ENE 22:42:11 10° ESE
Cosmos 2026 Rocket 3.9 22:33:01 10° N 22:39:11 79° E 22:45:14 10° S
Cosmos 1328 Rocket 4.4 22:36:23 10° SSE 22:40:13 29° E 22:42:12 21° NE
MOS 1-B Rocket 4.1 22:34:57 10° NNE 22:40:51 65° ESE 22:47:35 10° S
Lacrosse 5 rocket 2.9 22:40:17 10° NNW 22:42:59 17° NNE 22:43:19 17° NNE
COSMOS 2406 3.3 22:37:26 10° SSW 22:43:11 79° WNW 22:48:57 10° NNE
USA 229 DEB 4.1 22:36:41 10° NW 22:44:05 79° WSW 22:51:56 10° SSE
USA 229 4.1 22:36:46 10° NW 22:44:11 79° WSW 22:52:01 10° SSE
ARGOS 3.3 22:42:00 10° SE 22:47:09 47° ENE 22:52:20 10° N
COSMOS 2455 2.8 22:42:18 10° SSW 22:48:18 82° ESE 22:53:25 15° NNE
Cosmos 1833 Rocket 3.3 22:43:11 10° SW 22:48:40 56° WNW 22:54:13 10° NNE
Cosmos 858 Rocket 4.5 22:43:44 10° NNW 22:49:04 90° E 22:54:20 10° SSE
SKYMED 2 3.7 22:45:24 13° NNE 22:49:12 53° E 22:53:26 10° S
Cosmos 1500 3.0 22:46:03 10° N 22:49:49 83° E 22:53:31 10° S
Meteor 2-14 Rocket 4.4 22:43:46 10° N 22:49:55 87° E 22:55:59 10° S
Landsat 5 3.9 22:50:05 28° NE 22:51:31 37° E 22:55:14 10° SSE
ATLAS CENTAUR R/B 3.4 22:41:47 10° WSW 22:51:48 57° NW 22:54:53 20° NNE
Meteor 2-6 Rocket 4.5 22:49:58 10° SSE 22:55:28 46° E 23:00:15 13° NNE
SL-08 RB Rocket 4.2 22:52:38 10° SE 22:56:55 38° ENE 23:01:11 10° N
PAYLOAD B 4.4 22:53:38 10° S 22:59:14 78° WSW 23:04:53 10° NNW
USA 234 3.5 22:52:52 10° SE 22:59:23 72° SW 23:05:56 10° NW
Cosmos 1570 Rocket 4.0 22:55:21 10° S 23:00:28 57° ESE 23:03:29 24° NE
Cosmos 540 Rocket 4.1 22:57:37 10° SW 23:02:37 55° WNW 23:07:39 10° NNE
Sich 1 3.6 23:00:47 10° NNW 23:04:59 58° W 23:09:13 10° S
CZ-4B R/B 3.1 22:59:46 10° SSE 23:05:13 84° ENE 23:10:36 10° NNW
GEOS 3 Rocket 4.1 23:05:32 33° ENE 23:06:42 38° NE 23:11:27 10° NNW
Cosmos 1814 Rocket 3.9 23:02:20 10° SSW 23:07:34 77° ESE 23:10:55 22° NNE
Cosmos 44 Rocket 4.1 23:03:58 10° NNW 23:08:02 31° NE 23:08:02 31° NE
CZ-2C R/B 2.4 23:04:46 10° NNE 23:10:00 85° ESE 23:15:10 10° SSW
Cosmos 1818 4.1 23:05:31 10° NNW 23:10:36 37° NE 23:11:07 36° ENE
GPS 2-04 Rocket1 4.4 23:07:52 10° WSW 23:11:22 27° S 23:12:58 20° SSE
Meteor 2-21 Rocket 4.4 23:05:50 10° N 23:11:58 85° W 23:18:01 10° S
Meteor 2-8 Rocket 4.4 23:06:20 10° S 23:12:24 65° E 23:18:31 10° NNE
NOSS 2-2 (D) 4.4 23:08:21 10° NW 23:13:48 89° ENE 23:21:29 10° SE
Meteor 1-10 Rocket 4.4 23:08:48 10° SSE 23:14:21 49° E 23:16:43 31° NE
Cosmos 1900 4.4 23:09:58 10° SSW 23:14:42 54° ESE 23:15:35 47° ENE
Meteor 1-11 Rocket 4.3 23:11:30 10° N 23:15:43 35° NE 23:15:43 35° NE
deb Chang Zheng 4 3.6 23:13:13 10° S 23:17:31 77° WSW 23:21:51 10° NNW
Cosmos 1666 2.6 23:15:42 10° N 23:19:25 80° W 23:23:07 10° S
Feng Yun 1-1 Rocket 4.3 23:20:26 10° SSE 23:26:18 69° ENE 23:32:09 10° N
CZ-4C R/B 2.9 23:21:40 10° NW 23:29:02 77° NE 23:36:21 15° SE
Cosmos 2360 Rocket 4.2 23:26:25 10° N 23:27:34 14° NNE 23:27:34 14° NNE
Cosmos 2208 Rocket 4.0 23:28:03 10° SSW 23:33:27 89° ESE 23:35:28 40° NNE
Cosmos 1812 4.1 23:30:52 10° SSW 23:34:27 38° WNW 23:36:50 18° NNW
H-2A R/B 3.4 23:30:30 10° SSW 23:35:20 38° W 23:40:05 10° NNW
COSMO-SKYMED 1 3.5 23:34:00 16° N 23:37:14 46° WNW 23:41:22 10° SW
Spot 2 4.4 23:42:26 10° SSE 23:47:32 87° E 23:52:43 10° NNW
Cosmos 1633 Rocket 4.2 23:44:35 10° NNW 23:48:44 43° W 23:52:53 10° SSW
Cosmos 921 Rocket 4.0 23:44:46 10° SSW 23:47:24 38° SSW 23:47:24 38° SSW
Cosmos 2322 Rocket 3.6 23:44:52 10° NNW 23:47:27 25° N 23:47:27 25° N
